Date,Time,Northbound Count,Southbound Count,Combined Count
2021-07-01,00:00:00,0,1,1
2021-07-01,01:00:00,0,1,1
2021-07-01,02:00:00,0,1,1
2021-07-01,03:00:00,1,0,1
2021-07-01,04:00:00,2,0,2
2021-07-01,05:00:00,6,6,12
2021-07-01,06:00:00,19,8,27
2021-07-01,07:00:00,32,95,127
2021-07-01,08:00:00,59,24,83
2021-07-01,09:00:00,27,28,55
2021-07-01,10:00:00,33,41,74
2021-07-01,11:00:00,53,35,88
2021-07-01,12:00:00,46,56,102
2021-07-01,13:00:00,39,29,68
2021-07-01,14:00:00,90,33,123
2021-07-01,15:00:00,38,42,80
2021-07-01,16:00:00,23,49,72
2021-07-01,17:00:00,23,42,65
2021-07-01,18:00:00,25,19,44
2021-07-01,19:00:00,27,16,43
2021-07-01,20:00:00,7,11,18
2021-07-01,21:00:00,7,17,24
2021-07-01,22:00:00,6,11,17
2021-07-01,23:00:00,1,2,3
2021-07-02,00:00:00,2,1,3
2021-07-02,01:00:00,0,1,1
2021-07-02,02:00:00,0,1,1
2021-07-02,03:00:00,2,0,2
2021-07-02,04:00:00,2,0,2
2021-07-02,05:00:00,4,6,10
2021-07-02,06:00:00,12,8,20
2021-07-02,07:00:00,32,83,115
2021-07-02,08:00:00,39,24,63
2021-07-02,09:00:00,28,43,71
2021-07-02,10:00:00,34,22,56
2021-07-02,11:00:00,49,50,99
2021-07-02,12:00:00,38,51,89
2021-07-02,13:00:00,40,45,85
2021-07-02,14:00:00,86,33,119
2021-07-02,15:00:00,33,36,69
2021-07-02,16:00:00,34,39,73
2021-07-02,17:00:00,27,32,59
2021-07-02,18:00:00,14,26,40
2021-07-02,19:00:00,23,17,40
2021-07-02,20:00:00,12,6,18
2021-07-02,21:00:00,11,19,30
2021-07-02,22:00:00,5,7,12
2021-07-02,23:00:00,2,3,5
2021-07-03,00:00:00,1,2,3
2021-07-03,01:00:00,0,4,4
2021-07-03,02:00:00,0,0,0
2021-07-03,03:00:00,1,0,1
2021-07-03,04:00:00,1,0,1
2021-07-03,05:00:00,6,7,13
2021-07-03,06:00:00,4,4,8
2021-07-03,07:00:00,9,9,18
2021-07-03,08:00:00,27,12,39
2021-07-03,09:00:00,39,25,64
2021-07-03,10:00:00,34,32,66
2021-07-03,11:00:00,41,40,81
2021-07-03,12:00:00,39,52,91
2021-07-03,13:00:00,50,41,91
2021-07-03,14:00:00,47,38,85
2021-07-03,15:00:00,42,37,79
2021-07-03,16:00:00,33,35,68
2021-07-03,17:00:00,34,22,56
2021-07-03,18:00:00,14,38,52
2021-07-03,19:00:00,11,25,36
2021-07-03,20:00:00,8,6,14
2021-07-03,21:00:00,5,8,13
2021-07-03,22:00:00,9,5,14
2021-07-03,23:00:00,2,6,8
2021-07-04,00:00:00,0,7,7
2021-07-04,01:00:00,1,6,7
2021-07-04,02:00:00,1,0,1
2021-07-04,03:00:00,1,0,1
2021-07-04,04:00:00,0,1,1
2021-07-04,05:00:00,1,2,3
2021-07-04,06:00:00,4,2,6
2021-07-04,07:00:00,10,4,14
2021-07-04,08:00:00,25,13,38
2021-07-04,09:00:00,22,21,43
2021-07-04,10:00:00,39,43,82
2021-07-04,11:00:00,36,34,70
2021-07-04,12:00:00,44,44,88
2021-07-04,13:00:00,39,42,81
2021-07-04,14:00:00,33,36,69
2021-07-04,15:00:00,27,41,68
2021-07-04,16:00:00,32,24,56
2021-07-04,17:00:00,26,27,53
2021-07-04,18:00:00,14,11,25
2021-07-04,19:00:00,7,15,22
2021-07-04,20:00:00,11,16,27
2021-07-04,21:00:00,1,8,9
2021-07-04,22:00:00,5,2,7
2021-07-04,23:00:00,3,0,3
2021-07-05,00:00:00,1,1,2
2021-07-05,01:00:00,1,3,4
2021-07-05,02:00:00,0,0,0
2021-07-05,03:00:00,0,0,0
2021-07-05,04:00:00,3,0,3
2021-07-05,05:00:00,5,2,7
2021-07-05,06:00:00,21,12,33
2021-07-05,07:00:00,30,87,117
2021-07-05,08:00:00,45,21,66
2021-07-05,09:00:00,20,30,50
2021-07-05,10:00:00,38,34,72
2021-07-05,11:00:00,42,52,94
2021-07-05,12:00:00,53,36,89
2021-07-05,13:00:00,34,40,74
2021-07-05,14:00:00,79,39,118
2021-07-05,15:00:00,35,36,71
2021-07-05,16:00:00,40,45,85
2021-07-05,17:00:00,24,54,78
2021-07-05,18:00:00,29,20,49
2021-07-05,19:00:00,9,13,22
2021-07-05,20:00:00,7,9,16
2021-07-05,21:00:00,7,4,11
2021-07-05,22:00:00,2,2,4
2021-07-05,23:00:00,1,1,2
2021-07-06,00:00:00,1,5,6
2021-07-06,01:00:00,4,3,7
2021-07-06,02:00:00,0,1,1
2021-07-06,03:00:00,0,0,0
2021-07-06,04:00:00,4,2,6
2021-07-06,05:00:00,12,11,23
2021-07-06,06:00:00,15,6,21
2021-07-06,07:00:00,34,78,112
2021-07-06,08:00:00,52,22,74
2021-07-06,09:00:00,25,22,47
2021-07-06,10:00:00,22,18,40
2021-07-06,11:00:00,19,32,51
2021-07-06,12:00:00,31,29,60
2021-07-06,13:00:00,27,19,46
2021-07-06,14:00:00,76,15,91
2021-07-06,15:00:00,28,41,69
2021-07-06,16:00:00,30,39,69
2021-07-06,17:00:00,36,48,84
2021-07-06,18:00:00,26,25,51
2021-07-06,19:00:00,13,23,36
2021-07-06,20:00:00,12,11,23
2021-07-06,21:00:00,3,8,11
2021-07-06,22:00:00,4,6,10
2021-07-06,23:00:00,1,3,4
2021-07-07,00:00:00,0,0,0
2021-07-07,01:00:00,0,0,0
2021-07-07,02:00:00,0,0,0
2021-07-07,03:00:00,0,0,0
2021-07-07,04:00:00,1,0,1
2021-07-07,05:00:00,7,4,11
2021-07-07,06:00:00,12,12,24
2021-07-07,07:00:00,27,67,94
2021-07-07,08:00:00,39,21,60
2021-07-07,09:00:00,42,26,68
2021-07-07,10:00:00,22,47,69
2021-07-07,11:00:00,35,41,76
2021-07-07,12:00:00,32,38,70
2021-07-07,13:00:00,42,33,75
2021-07-07,14:00:00,94,40,134
2021-07-07,15:00:00,30,27,57
2021-07-07,16:00:00,30,32,62
2021-07-07,17:00:00,27,40,67
2021-07-07,18:00:00,23,25,48
2021-07-07,19:00:00,13,12,25
2021-07-07,20:00:00,5,6,11
2021-07-07,21:00:00,6,8,14
2021-07-07,22:00:00,5,6,11
2021-07-07,23:00:00,4,16,20
2021-07-08,00:00:00,5,6,11
2021-07-08,01:00:00,0,1,1
2021-07-08,02:00:00,0,1,1
2021-07-08,03:00:00,1,1,2
2021-07-08,04:00:00,2,1,3
2021-07-08,05:00:00,4,4,8
2021-07-08,06:00:00,16,10,26
2021-07-08,07:00:00,33,79,112
2021-07-08,08:00:00,39,21,60
2021-07-08,09:00:00,40,32,72
2021-07-08,10:00:00,36,31,67
2021-07-08,11:00:00,38,33,71
2021-07-08,12:00:00,50,37,87
2021-07-08,13:00:00,41,36,77
2021-07-08,14:00:00,95,47,142
2021-07-08,15:00:00,23,30,53
2021-07-08,16:00:00,13,42,55
2021-07-08,17:00:00,27,35,62
2021-07-08,18:00:00,28,25,53
2021-07-08,19:00:00,25,28,53
2021-07-08,20:00:00,26,13,39
2021-07-08,21:00:00,3,4,7
2021-07-08,22:00:00,4,13,17
2021-07-08,23:00:00,4,6,10
2021-07-09,00:00:00,1,0,1
2021-07-09,01:00:00,0,1,1
2021-07-09,02:00:00,0,1,1
2021-07-09,03:00:00,0,0,0
2021-07-09,04:00:00,5,0,5
2021-07-09,05:00:00,3,8,11
2021-07-09,06:00:00,14,12,26
2021-07-09,07:00:00,32,87,119
2021-07-09,08:00:00,37,27,64
2021-07-09,09:00:00,36,28,64
2021-07-09,10:00:00,48,38,86
2021-07-09,11:00:00,40,47,87
2021-07-09,12:00:00,47,44,91
2021-07-09,13:00:00,47,36,83
2021-07-09,14:00:00,89,39,128
2021-07-09,15:00:00,25,47,72
2021-07-09,16:00:00,40,52,92
2021-07-09,17:00:00,21,37,58
2021-07-09,18:00:00,22,32,54
2021-07-09,19:00:00,21,19,40
2021-07-09,20:00:00,23,14,37
2021-07-09,21:00:00,5,12,17
2021-07-09,22:00:00,5,9,14
2021-07-09,23:00:00,4,7,11
2021-07-10,00:00:00,0,3,3
2021-07-10,01:00:00,0,2,2
2021-07-10,02:00:00,0,2,2
2021-07-10,03:00:00,2,1,3
2021-07-10,04:00:00,1,0,1
2021-07-10,05:00:00,3,7,10
2021-07-10,06:00:00,9,6,15
2021-07-10,07:00:00,16,7,23
2021-07-10,08:00:00,19,14,33
2021-07-10,09:00:00,29,16,45
2021-07-10,10:00:00,26,21,47
2021-07-10,11:00:00,28,23,51
2021-07-10,12:00:00,20,36,56
2021-07-10,13:00:00,19,20,39
2021-07-10,14:00:00,19,35,54
2021-07-10,15:00:00,36,34,70
2021-07-10,16:00:00,36,19,55
2021-07-10,17:00:00,30,45,75
2021-07-10,18:00:00,28,21,49
2021-07-10,19:00:00,28,17,45
2021-07-10,20:00:00,4,13,17
2021-07-10,21:00:00,5,9,14
2021-07-10,22:00:00,3,9,12
2021-07-10,23:00:00,1,5,6
2021-07-11,00:00:00,0,8,8
2021-07-11,01:00:00,3,3,6
2021-07-11,02:00:00,0,0,0
2021-07-11,03:00:00,2,0,2
2021-07-11,04:00:00,1,1,2
2021-07-11,05:00:00,4,5,9
2021-07-11,06:00:00,11,7,18
2021-07-11,07:00:00,10,12,22
2021-07-11,08:00:00,22,28,50
2021-07-11,09:00:00,23,38,61
2021-07-11,10:00:00,45,42,87
2021-07-11,11:00:00,47,42,89
2021-07-11,12:00:00,47,45,92
2021-07-11,13:00:00,56,38,94
2021-07-11,14:00:00,28,30,58
2021-07-11,15:00:00,36,25,61
2021-07-11,16:00:00,36,19,55
2021-07-11,17:00:00,24,12,36
2021-07-11,18:00:00,18,20,38
2021-07-11,19:00:00,5,4,9
2021-07-11,20:00:00,1,4,5
2021-07-11,21:00:00,1,0,1
2021-07-11,22:00:00,1,1,2
2021-07-11,23:00:00,16,13,29
2021-07-12,00:00:00,0,5,5
2021-07-12,01:00:00,4,5,9
2021-07-12,02:00:00,1,3,4
2021-07-12,03:00:00,1,1,2
2021-07-12,04:00:00,35,27,62
2021-07-12,05:00:00,43,41,84
2021-07-12,06:00:00,16,16,32
2021-07-12,07:00:00,24,81,105
2021-07-12,08:00:00,36,16,52
2021-07-12,09:00:00,23,21,44
2021-07-12,10:00:00,30,36,66
2021-07-12,11:00:00,39,43,82
2021-07-12,12:00:00,37,28,65
2021-07-12,13:00:00,28,38,66
2021-07-12,14:00:00,83,33,116
2021-07-12,15:00:00,110,118,228
2021-07-12,16:00:00,33,48,81
2021-07-12,17:00:00,9,24,33
2021-07-12,18:00:00,11,16,27
2021-07-12,19:00:00,10,16,26
2021-07-12,20:00:00,5,4,9
2021-07-12,21:00:00,8,5,13
2021-07-12,22:00:00,2,4,6
2021-07-12,23:00:00,1,3,4
2021-07-13,00:00:00,0,1,1
2021-07-13,01:00:00,0,0,0
2021-07-13,02:00:00,0,0,0
2021-07-13,03:00:00,1,0,1
2021-07-13,04:00:00,2,0,2
2021-07-13,05:00:00,4,4,8
2021-07-13,06:00:00,14,8,22
2021-07-13,07:00:00,35,88,123
2021-07-13,08:00:00,53,20,73
2021-07-13,09:00:00,57,29,86
2021-07-13,10:00:00,36,38,74
2021-07-13,11:00:00,34,44,78
2021-07-13,12:00:00,51,42,93
2021-07-13,13:00:00,45,29,74
2021-07-13,14:00:00,85,51,136
2021-07-13,15:00:00,34,57,91
2021-07-13,16:00:00,31,41,72
2021-07-13,17:00:00,26,60,86
2021-07-13,18:00:00,39,57,96
2021-07-13,19:00:00,32,16,48
2021-07-13,20:00:00,9,19,28
2021-07-13,21:00:00,9,9,18
2021-07-13,22:00:00,2,6,8
2021-07-13,23:00:00,5,7,12
2021-07-14,00:00:00,1,1,2
2021-07-14,01:00:00,1,1,2
2021-07-14,02:00:00,1,1,2
2021-07-14,03:00:00,0,2,2
2021-07-14,04:00:00,2,0,2
2021-07-14,05:00:00,6,4,10
2021-07-14,06:00:00,13,12,25
2021-07-14,07:00:00,36,80,116
2021-07-14,08:00:00,49,25,74
2021-07-14,09:00:00,35,59,94
2021-07-14,10:00:00,55,47,102
2021-07-14,11:00:00,64,51,115
2021-07-14,12:00:00,42,43,85
2021-07-14,13:00:00,29,42,71
2021-07-14,14:00:00,84,39,123
2021-07-14,15:00:00,35,32,67
2021-07-14,16:00:00,31,42,73
2021-07-14,17:00:00,43,43,86
2021-07-14,18:00:00,44,47,91
2021-07-14,19:00:00,31,21,52
2021-07-14,20:00:00,11,15,26
2021-07-14,21:00:00,7,18,25
2021-07-14,22:00:00,6,6,12
2021-07-14,23:00:00,2,8,10
2021-07-15,00:00:00,0,2,2
2021-07-15,01:00:00,0,1,1
2021-07-15,02:00:00,0,0,0
2021-07-15,03:00:00,0,0,0
2021-07-15,04:00:00,2,0,2
2021-07-15,05:00:00,4,8,12
2021-07-15,06:00:00,18,12,30
2021-07-15,07:00:00,22,76,98
2021-07-15,08:00:00,35,22,57
2021-07-15,09:00:00,41,23,64
2021-07-15,10:00:00,36,31,67
2021-07-15,11:00:00,31,48,79
2021-07-15,12:00:00,61,39,100
2021-07-15,13:00:00,29,40,69
2021-07-15,14:00:00,78,45,123
2021-07-15,15:00:00,51,41,92
2021-07-15,16:00:00,22,40,62
2021-07-15,17:00:00,29,50,79
2021-07-15,18:00:00,27,31,58
2021-07-15,19:00:00,20,20,40
2021-07-15,20:00:00,13,13,26
2021-07-15,21:00:00,3,8,11
2021-07-15,22:00:00,3,9,12
2021-07-15,23:00:00,6,3,9
2021-07-16,00:00:00,2,5,7
2021-07-16,01:00:00,0,1,1
2021-07-16,02:00:00,0,1,1
2021-07-16,03:00:00,1,1,2
2021-07-16,04:00:00,2,0,2
2021-07-16,05:00:00,3,10,13
2021-07-16,06:00:00,16,10,26
2021-07-16,07:00:00,22,87,109
2021-07-16,08:00:00,36,15,51
2021-07-16,09:00:00,64,32,96
2021-07-16,10:00:00,31,43,74
2021-07-16,11:00:00,51,60,111
2021-07-16,12:00:00,68,51,119
2021-07-16,13:00:00,34,33,67
2021-07-16,14:00:00,133,52,185
2021-07-16,15:00:00,34,38,72
2021-07-16,16:00:00,41,48,89
2021-07-16,17:00:00,24,28,52
2021-07-16,18:00:00,22,27,49
2021-07-16,19:00:00,16,24,40
2021-07-16,20:00:00,26,9,35
2021-07-16,21:00:00,28,9,37
2021-07-16,22:00:00,3,9,12
2021-07-16,23:00:00,3,2,5
2021-07-17,00:00:00,0,5,5
2021-07-17,01:00:00,0,1,1
2021-07-17,02:00:00,2,1,3
2021-07-17,03:00:00,0,0,0
2021-07-17,04:00:00,2,0,2
2021-07-17,05:00:00,2,7,9
2021-07-17,06:00:00,6,5,11
2021-07-17,07:00:00,15,23,38
2021-07-17,08:00:00,41,24,65
2021-07-17,09:00:00,31,43,74
2021-07-17,10:00:00,36,30,66
2021-07-17,11:00:00,42,67,109
2021-07-17,12:00:00,58,42,100
2021-07-17,13:00:00,29,24,53
2021-07-17,14:00:00,36,40,76
2021-07-17,15:00:00,54,34,88
2021-07-17,16:00:00,22,31,53
2021-07-17,17:00:00,36,39,75
2021-07-17,18:00:00,37,22,59
2021-07-17,19:00:00,21,20,41
2021-07-17,20:00:00,26,9,35
2021-07-17,21:00:00,9,10,19
2021-07-17,22:00:00,16,8,24
2021-07-17,23:00:00,8,6,14
2021-07-18,00:00:00,0,2,2
2021-07-18,01:00:00,0,3,3
2021-07-18,02:00:00,0,0,0
2021-07-18,03:00:00,1,0,1
2021-07-18,04:00:00,0,0,0
2021-07-18,05:00:00,2,6,8
2021-07-18,06:00:00,6,7,13
2021-07-18,07:00:00,16,14,30
2021-07-18,08:00:00,23,26,49
2021-07-18,09:00:00,37,46,83
2021-07-18,10:00:00,25,38,63
2021-07-18,11:00:00,50,43,93
2021-07-18,12:00:00,33,30,63
2021-07-18,13:00:00,43,20,63
2021-07-18,14:00:00,27,21,48
2021-07-18,15:00:00,30,17,47
2021-07-18,16:00:00,26,23,49
2021-07-18,17:00:00,31,19,50
2021-07-18,18:00:00,29,32,61
2021-07-18,19:00:00,19,15,34
2021-07-18,20:00:00,17,7,24
2021-07-18,21:00:00,5,8,13
2021-07-18,22:00:00,12,3,15
2021-07-18,23:00:00,1,2,3
2021-07-19,00:00:00,0,1,1
2021-07-19,01:00:00,0,0,0
2021-07-19,02:00:00,0,2,2
2021-07-19,03:00:00,0,0,0
2021-07-19,04:00:00,3,0,3
2021-07-19,05:00:00,6,5,11
2021-07-19,06:00:00,15,12,27
2021-07-19,07:00:00,30,58,88
2021-07-19,08:00:00,41,22,63
2021-07-19,09:00:00,29,17,46
2021-07-19,10:00:00,30,27,57
2021-07-19,11:00:00,31,42,73
2021-07-19,12:00:00,34,28,62
2021-07-19,13:00:00,26,14,40
2021-07-19,14:00:00,61,22,83
2021-07-19,15:00:00,22,45,67
2021-07-19,16:00:00,25,31,56
2021-07-19,17:00:00,20,30,50
2021-07-19,18:00:00,19,31,50
2021-07-19,19:00:00,26,22,48
2021-07-19,20:00:00,24,26,50
2021-07-19,21:00:00,10,11,21
2021-07-19,22:00:00,10,2,12
2021-07-19,23:00:00,4,6,10
2021-07-20,00:00:00,2,2,4
2021-07-20,01:00:00,0,1,1
2021-07-20,02:00:00,0,1,1
2021-07-20,03:00:00,0,0,0
2021-07-20,04:00:00,4,0,4
2021-07-20,05:00:00,0,5,5
2021-07-20,06:00:00,18,13,31
2021-07-20,07:00:00,40,43,83
2021-07-20,08:00:00,49,21,70
2021-07-20,09:00:00,26,15,41
2021-07-20,10:00:00,30,28,58
2021-07-20,11:00:00,27,17,44
2021-07-20,12:00:00,31,27,58
2021-07-20,13:00:00,33,26,59
2021-07-20,14:00:00,42,49,91
2021-07-20,15:00:00,24,38,62
2021-07-20,16:00:00,26,37,63
2021-07-20,17:00:00,32,58,90
2021-07-20,18:00:00,24,35,59
2021-07-20,19:00:00,18,15,33
2021-07-20,20:00:00,20,20,40
2021-07-20,21:00:00,19,10,29
2021-07-20,22:00:00,6,8,14
2021-07-20,23:00:00,1,15,16
2021-07-21,00:00:00,1,1,2
2021-07-21,01:00:00,0,1,1
2021-07-21,02:00:00,0,1,1
2021-07-21,03:00:00,2,0,2
2021-07-21,04:00:00,6,1,7
2021-07-21,05:00:00,3,7,10
2021-07-21,06:00:00,21,17,38
2021-07-21,07:00:00,32,34,66
2021-07-21,08:00:00,49,13,62
2021-07-21,09:00:00,28,31,59
2021-07-21,10:00:00,18,21,39
2021-07-21,11:00:00,32,41,73
2021-07-21,12:00:00,27,26,53
2021-07-21,13:00:00,19,23,42
2021-07-21,14:00:00,33,30,63
2021-07-21,15:00:00,23,16,39
2021-07-21,16:00:00,28,30,58
2021-07-21,17:00:00,35,58,93
2021-07-21,18:00:00,34,30,64
2021-07-21,19:00:00,28,33,61
2021-07-21,20:00:00,26,20,46
2021-07-21,21:00:00,27,19,46
2021-07-21,22:00:00,10,11,21
2021-07-21,23:00:00,6,5,11
2021-07-22,00:00:00,0,1,1
2021-07-22,01:00:00,0,0,0
2021-07-22,02:00:00,0,1,1
2021-07-22,03:00:00,0,0,0
2021-07-22,04:00:00,4,0,4
2021-07-22,05:00:00,3,8,11
2021-07-22,06:00:00,18,13,31
2021-07-22,07:00:00,35,38,73
2021-07-22,08:00:00,35,28,63
2021-07-22,09:00:00,25,21,46
2021-07-22,10:00:00,28,33,61
2021-07-22,11:00:00,25,18,43
2021-07-22,12:00:00,40,26,66
2021-07-22,13:00:00,24,42,66
2021-07-22,14:00:00,27,33,60
2021-07-22,15:00:00,21,25,46
2021-07-22,16:00:00,35,43,78
2021-07-22,17:00:00,32,39,71
2021-07-22,18:00:00,28,20,48
2021-07-22,19:00:00,35,34,69
2021-07-22,20:00:00,22,16,38
2021-07-22,21:00:00,20,15,35
2021-07-22,22:00:00,12,12,24
2021-07-22,23:00:00,3,8,11
2021-07-23,00:00:00,1,1,2
2021-07-23,01:00:00,0,0,0
2021-07-23,02:00:00,0,4,4
2021-07-23,03:00:00,0,2,2
2021-07-23,04:00:00,3,0,3
2021-07-23,05:00:00,5,5,10
2021-07-23,06:00:00,11,11,22
2021-07-23,07:00:00,17,45,62
2021-07-23,08:00:00,47,22,69
2021-07-23,09:00:00,34,44,78
2021-07-23,10:00:00,50,48,98
2021-07-23,11:00:00,68,58,126
2021-07-23,12:00:00,46,42,88
2021-07-23,13:00:00,44,30,74
2021-07-23,14:00:00,34,28,62
2021-07-23,15:00:00,26,44,70
2021-07-23,16:00:00,38,35,73
2021-07-23,17:00:00,32,27,59
2021-07-23,18:00:00,31,33,64
2021-07-23,19:00:00,25,20,45
2021-07-23,20:00:00,14,19,33
2021-07-23,21:00:00,11,13,24
2021-07-23,22:00:00,3,6,9
2021-07-23,23:00:00,4,4,8
2021-07-24,00:00:00,3,3,6
2021-07-24,01:00:00,1,3,4
2021-07-24,02:00:00,1,1,2
2021-07-24,03:00:00,4,1,5
2021-07-24,04:00:00,1,0,1
2021-07-24,05:00:00,1,5,6
2021-07-24,06:00:00,7,3,10
2021-07-24,07:00:00,8,8,16
2021-07-24,08:00:00,28,18,46
2021-07-24,09:00:00,29,23,52
2021-07-24,10:00:00,33,40,73
2021-07-24,11:00:00,62,43,105
2021-07-24,12:00:00,43,24,67
2021-07-24,13:00:00,38,25,63
2021-07-24,14:00:00,27,36,63
2021-07-24,15:00:00,38,37,75
2021-07-24,16:00:00,27,43,70
2021-07-24,17:00:00,48,45,93
2021-07-24,18:00:00,34,28,62
2021-07-24,19:00:00,29,14,43
2021-07-24,20:00:00,14,12,26
2021-07-24,21:00:00,9,19,28
2021-07-24,22:00:00,11,18,29
2021-07-24,23:00:00,13,15,28
2021-07-25,00:00:00,6,2,8
2021-07-25,01:00:00,1,5,6
2021-07-25,02:00:00,0,2,2
2021-07-25,03:00:00,0,1,1
2021-07-25,04:00:00,0,0,0
2021-07-25,05:00:00,1,4,5
2021-07-25,06:00:00,11,5,16
2021-07-25,07:00:00,9,7,16
2021-07-25,08:00:00,12,18,30
2021-07-25,09:00:00,18,16,34
2021-07-25,10:00:00,15,12,27
2021-07-25,11:00:00,27,13,40
2021-07-25,12:00:00,17,15,32
2021-07-25,13:00:00,13,8,21
2021-07-25,14:00:00,23,10,33
2021-07-25,15:00:00,13,28,41
2021-07-25,16:00:00,15,17,32
2021-07-25,17:00:00,17,10,27
2021-07-25,18:00:00,17,17,34
2021-07-25,19:00:00,6,15,21
2021-07-25,20:00:00,4,8,12
2021-07-25,21:00:00,2,2,4
2021-07-25,22:00:00,6,10,16
2021-07-25,23:00:00,1,2,3
2021-07-26,00:00:00,0,0,0
2021-07-26,01:00:00,0,1,1
2021-07-26,02:00:00,0,1,1
2021-07-26,03:00:00,1,0,1
2021-07-26,04:00:00,0,0,0
2021-07-26,05:00:00,2,3,5
2021-07-26,06:00:00,21,5,26
2021-07-26,07:00:00,57,37,94
2021-07-26,08:00:00,31,25,56
2021-07-26,09:00:00,24,20,44
2021-07-26,10:00:00,47,39,86
2021-07-26,11:00:00,39,39,78
2021-07-26,12:00:00,71,61,132
2021-07-26,13:00:00,30,65,95
2021-07-26,14:00:00,25,30,55
2021-07-26,15:00:00,39,44,83
2021-07-26,16:00:00,35,48,83
2021-07-26,17:00:00,19,53,72
2021-07-26,18:00:00,24,42,66
2021-07-26,19:00:00,29,21,50
2021-07-26,20:00:00,21,11,32
2021-07-26,21:00:00,8,10,18
2021-07-26,22:00:00,3,1,4
2021-07-26,23:00:00,2,6,8
2021-07-27,00:00:00,0,0,0
2021-07-27,01:00:00,0,1,1
2021-07-27,02:00:00,0,1,1
2021-07-27,03:00:00,0,0,0
2021-07-27,04:00:00,2,1,3
2021-07-27,05:00:00,6,0,6
2021-07-27,06:00:00,16,7,23
2021-07-27,07:00:00,59,27,86
2021-07-27,08:00:00,26,16,42
2021-07-27,09:00:00,25,17,42
2021-07-27,10:00:00,32,19,51
2021-07-27,11:00:00,25,32,57
2021-07-27,12:00:00,43,35,78
2021-07-27,13:00:00,31,49,80
2021-07-27,14:00:00,28,30,58
2021-07-27,15:00:00,29,37,66
2021-07-27,16:00:00,37,34,71
2021-07-27,17:00:00,19,40,59
2021-07-27,18:00:00,27,36,63
2021-07-27,19:00:00,30,27,57
2021-07-27,20:00:00,8,17,25
2021-07-27,21:00:00,8,16,24
2021-07-27,22:00:00,2,7,9
2021-07-27,23:00:00,1,3,4
2021-07-28,00:00:00,0,1,1
2021-07-28,01:00:00,0,0,0
2021-07-28,02:00:00,0,1,1
2021-07-28,03:00:00,0,0,0
2021-07-28,04:00:00,3,0,3
2021-07-28,05:00:00,4,5,9
2021-07-28,06:00:00,15,7,22
2021-07-28,07:00:00,62,32,94
2021-07-28,08:00:00,41,22,63
2021-07-28,09:00:00,35,19,54
2021-07-28,10:00:00,24,36,60
2021-07-28,11:00:00,28,42,70
2021-07-28,12:00:00,51,48,99
2021-07-28,13:00:00,34,62,96
2021-07-28,14:00:00,47,33,80
2021-07-28,15:00:00,37,29,66
2021-07-28,16:00:00,26,44,70
2021-07-28,17:00:00,35,25,60
2021-07-28,18:00:00,21,42,63
2021-07-28,19:00:00,12,20,32
2021-07-28,20:00:00,19,8,27
2021-07-28,21:00:00,9,11,20
2021-07-28,22:00:00,4,7,11
2021-07-28,23:00:00,6,2,8
2021-07-29,00:00:00,0,3,3
2021-07-29,01:00:00,0,0,0
2021-07-29,02:00:00,0,0,0
2021-07-29,03:00:00,0,0,0
2021-07-29,04:00:00,2,0,2
2021-07-29,05:00:00,6,5,11
2021-07-29,06:00:00,17,15,32
2021-07-29,07:00:00,55,25,80
2021-07-29,08:00:00,42,26,68
2021-07-29,09:00:00,37,32,69
2021-07-29,10:00:00,26,31,57
2021-07-29,11:00:00,46,39,85
2021-07-29,12:00:00,54,50,104
2021-07-29,13:00:00,36,54,90
2021-07-29,14:00:00,30,30,60
2021-07-29,15:00:00,31,32,63
2021-07-29,16:00:00,36,43,79
2021-07-29,17:00:00,48,41,89
2021-07-29,18:00:00,24,38,62
2021-07-29,19:00:00,29,26,55
2021-07-29,20:00:00,19,10,29
2021-07-29,21:00:00,5,7,12
2021-07-29,22:00:00,1,8,9
2021-07-29,23:00:00,3,2,5
2021-07-30,00:00:00,1,3,4
2021-07-30,01:00:00,1,1,2
2021-07-30,02:00:00,0,3,3
2021-07-30,03:00:00,1,0,1
2021-07-30,04:00:00,1,1,2
2021-07-30,05:00:00,4,3,7
2021-07-30,06:00:00,14,9,23
2021-07-30,07:00:00,35,21,56
2021-07-30,08:00:00,18,7,25
2021-07-30,09:00:00,20,10,30
2021-07-30,10:00:00,15,14,29
2021-07-30,11:00:00,15,15,30
2021-07-30,12:00:00,34,43,77
2021-07-30,13:00:00,20,23,43
2021-07-30,14:00:00,29,21,50
2021-07-30,15:00:00,23,19,42
2021-07-30,16:00:00,19,25,44
2021-07-30,17:00:00,13,22,35
2021-07-30,18:00:00,28,19,47
2021-07-30,19:00:00,12,19,31
2021-07-30,20:00:00,8,9,17
2021-07-30,21:00:00,4,8,12
2021-07-30,22:00:00,6,11,17
2021-07-30,23:00:00,4,2,6
,,Monthly total,,29618
